EDT,Max TemperatureF,Mean TemperatureF,Min TemperatureF,Max Dew PointF,MeanDew PointF,Min DewpointF,Max Humidity, Mean Humidity, Min Humidity, Max Sea Level PressureIn, Mean Sea Level PressureIn, Min Sea Level PressureIn, Max VisibilityMiles, Mean VisibilityMiles, Min VisibilityMiles, Max Wind SpeedMPH, Mean Wind SpeedMPH, Max Gust SpeedMPH,PrecipitationIn, CloudCover, Events, WindDirDegrees
2013-3-1,34,31,28,30,27,21,89,79,69,29.88,29.77,29.67,9,8,3,17,11,23,T,8,Snow,305
2013-3-2,28,26,23,22,18,14,81,75,68,29.89,29.87,29.85,9,8,4,15,9,23,0.01,8,Snow,314
2013-3-3,26,23,20,19,16,12,84,74,63,29.86,29.84,29.81,9,6,1,17,9,22,0.02,8,Snow,305
2013-3-4,30,27,24,22,19,18,81,72,63,30.00,29.92,29.84,10,6,2,23,15,30,0.01,8,Snow,270
2013-3-5,34,28,21,22,20,17,84,73,61,30.09,30.05,30.00,10,10,8,15,4,18,T,6,Snow,277
2013-3-6,44,34,23,28,24,18,81,66,51,30.12,30.06,29.99,10,10,10,15,7,21,T,8,,68
2013-3-7,40,35,29,25,22,19,85,67,48,30.23,30.18,30.12,10,8,1,17,7,21,0.03,8,Snow,341
2013-3-8,38,33,27,25,23,21,85,69,52,30.38,30.28,30.21,10,6,1,21,10,28,0.09,6,Snow,312
2013-3-9,48,36,24,29,24,19,92,63,34,30.41,30.35,30.27,10,7,0,8,3,13,0.00,4,Fog,261
2013-3-10,60,44,27,25,22,19,75,49,23,30.26,30.15,30.05,10,10,10,20,9,28,0.00,5,,119
2013-3-11,56,51,45,40,29,24,59,46,32,30.05,29.93,29.75,10,10,10,29,12,41,T,7,,136
2013-3-12,56,46,35,47,37,28,92,77,61,29.90,29.81,29.73,10,7,2,21,10,30,0.35,8,Rain,299
2013-3-13,43,35,27,29,25,16,81,65,48,29.91,29.86,29.81,10,8,0,21,11,18,0.04,8,Fog-Snow,262
2013-3-14,31,26,20,22,13,7,78,58,37,30.01,29.96,29.89,10,6,1,29,20,43,0.04,7,Snow,300
2013-3-15,37,31,24,32,23,11,85,68,51,30.01,29.80,29.68,10,7,1,20,12,,0.05,8,Snow,266
2013-3-16,31,26,20,20,13,10,63,54,38,29.97,29.87,29.71,10,10,9,13,6,16,T,6,Snow,343
2013-3-17,34,26,18,19,13,7,84,55,8,30.35,30.15,29.97,10,9,1,18,8,25,0.02,5,Snow,302
2013-3-18,36,25,14,27,16,9,89,62,34,30.41,30.19,29.88,10,7,0,18,10,24,0.31,6,Fog-Snow,109
2013-3-19,42,35,27,35,28,18,92,81,48,29.86,29.76,29.67,10,5,0,28,9,33,0.48,8,Fog-Snow,78
2013-3-20,35,33,30,28,20,17,75,63,51,29.82,29.80,29.78,10,9,2,26,15,31,T,7,Snow,275
2013-3-21,32,27,21,30,17,12,85,60,45,29.81,29.75,29.71,10,10,8,18,11,28,T,4,Snow,260
2013-3-22,32,29,26,28,24,22,88,76,63,29.86,29.78,29.69,10,4,1,25,15,33,0.13,8,Snow,264
2013-3-23,37,33,29,27,24,19,85,69,52,29.96,29.88,29.83,10,5,1,26,13,33,0.18,7,Snow,272
2013-3-24,40,34,27,23,20,18,72,58,44,29.95,29.87,29.75,10,10,10,12,6,16,0.00,7,,302
2013-3-25,45,37,28,26,23,20,69,56,43,29.73,29.65,29.57,10,10,10,14,8,17,0.00,8,,37
2013-3-26,44,38,32,30,25,20,82,61,39,29.91,29.80,29.68,10,10,10,17,8,23,T,6,,277
2013-3-27,47,39,31,30,27,23,82,64,45,30.02,29.94,29.88,10,10,10,21,11,25,0.00,6,,269
2013-3-28,48,41,34,31,29,26,82,64,45,30.17,30.07,30.00,10,10,9,17,11,23,T,8,Snow,275
2013-3-29,46,40,34,31,29,27,76,63,49,30.18,30.15,30.12,10,10,10,16,8,20,0.00,7,,272
2013-3-30,53,43,32,27,24,20,75,52,28,30.19,30.13,30.08,10,10,10,14,6,18,0.00,2,,265
2013-3-31,57,44,30,41,31,22,96,64,32,30.08,29.82,29.65,10,8,2,30,10,39,0.34,7,Rain,126